FW3284 Weather Reports


Display with metric or nautical units.
time (UTC)temp
F
wind
direction
speed
MPH
gust
MPH
rain 1hr
in
rain 24hr
in
rain mn
in
humidity
%
barometer
mb
20260510084523 56 89 0.0 0.0 0.00 0.01 0.00 80 1013.0
20260510083005 57 89 0.0 0.0 0.00 0.01 0.00 79 1012.6
20260510081541 57 158 0.0 0.0 0.00 0.01 0.00 78 1012.7
20260510080022 57 158 0.0 0.0 0.00 0.01 0.00 79 1012.9
20260510074503 57 158 0.0 0.0 0.00 0.01 0.00 77 1012.8
20260510073042 58 158 0.0 0.0 0.00 0.01 0.00 74 1012.7
20260510071518 61 158 0.0 0.0 0.00 0.01 0.00 68 1012.7
20260510064557 61 158 0.0 0.0 0.00 0.01 0.00 67 1012.4
20260510063017 60 162 0.0 3.0 0.00 0.01 0.00 69 1012.6
20260510061555 63 72 0.0 0.0 0.00 0.01 0.00 63 1012.5
20260510060038 65 314 0.0 0.0 0.00 0.01 0.01 60 1012.5
20260510054518 65 251 0.0 0.0 0.00 0.01 0.01 59 1012.6
20260510053018 65 266 0.0 0.0 0.00 0.01 0.01 60 1012.6
20260510051549 65 284 0.0 0.0 0.00 0.01 0.01 59 1012.6
20260510050035 63 345 0.0 0.0 0.00 0.01 0.01 65 1012.5
20260510044502 66 196 0.0 4.0 0.00 0.01 0.01 55 1011.9
20260510043044 67 231 1.0 4.0 0.00 0.01 0.01 51 1011.6
20260510041520 68 231 0.0 4.0 0.00 0.01 0.01 49 1011.5
20260510040002 67 205 0.0 5.0 0.00 0.01 0.01 50 1011.2
20260510034531 69 168 0.0 4.0 0.00 0.01 0.01 50 1011.3
20260510033012 69 169 1.0 5.0 0.00 0.01 0.01 47 1011.2
20260510031555 69 192 0.0 5.0 0.00 0.01 0.01 47 1011.1
20260510030027 69 182 0.0 3.0 0.00 0.01 0.01 49 1011.2
20260510024512 68 191 0.0 0.0 0.00 0.01 0.01 54 1010.9
20260510023052 71 192 0.0 3.0 0.00 0.01 0.01 44 1010.5
20260510021539 71 172 0.0 3.0 0.00 0.01 0.01 46 1010.1
20260510020022 72 182 0.0 0.0 0.00 0.01 0.01 47 1010.0
20260510014504 73 204 0.0 0.0 0.00 0.01 0.01 48 1009.7
20260510013051 73 218 0.0 3.0 0.00 0.01 0.01 44 1009.4
20260510011523 74 186 0.0 0.0 0.00 0.01 0.01 41 1009.2
20260510010004 76 226 0.0 0.0 0.00 0.01 0.01 36 1009.1
20260510004543 77 226 0.0 0.0 0.00 0.01 0.01 36 1008.8
20260510003028 78 226 0.0 0.0 0.00 0.01 0.01 34 1008.9
20260510001507 78 226 0.0 0.0 0.00 0.01 0.01 34 1008.9
20260510000057 79 198 0.0 0.0 0.00 0.01 0.01 35 1008.9
20260509234538 79 217 0.0 0.0 0.00 0.01 0.01 33 1008.8
20260509233007 79 248 1.0 7.0 0.00 0.01 0.01 33 1008.8
20260509231553 79 212 0.0 3.0 0.00 0.01 0.01 32 1008.8
20260509230033 80 196 0.0 4.0 0.00 0.01 0.01 31 1008.8
20260509224513 81 290 0.0 0.0 0.00 0.01 0.01 34 1008.8
20260509223049 81 282 0.0 0.0 0.00 0.01 0.01 30 1008.9
20260509221537 81 214 0.0 6.0 0.00 0.01 0.01 32 1008.8
20260509220040 82 283 0.0 0.0 0.00 0.01 0.01 33 1008.8
20260509214506 81 16 0.0 0.0 0.00 0.01 0.01 31 1008.8
20260509213045 81 257 2.0 6.0 0.00 0.01 0.01 30 1008.8
20260509211519 80 233 3.0 11.0 0.00 0.01 0.01 36 1008.9
20260509210057 80 276 0.0 10.0 0.00 0.01 0.01 34 1009.1
20260509204535 80 219 0.0 0.0 0.00 0.01 0.01 31 1009.2
20260509203029 79 298 0.0 0.0 0.00 0.01 0.01 33 1009.4
20260509201553 81 288 0.0 4.0 0.00 0.01 0.01 32 1009.5
20260509201502 81 249 0.0 4.0 0.00 0.01 0.01 34 1009.5
20260509200044 80 253 4.0 9.0 0.00 0.01 0.01 32 1009.8
20260509194519 79 293 0.0 0.0 0.00 0.01 0.01 38 1009.9
20260509193051 79 224 0.0 0.0 0.00 0.01 0.01 35 1009.9
20260509191533 79 255 0.0 6.0 0.00 0.01 0.01 35 1009.9
20260509190014 80 234 1.0 7.0 0.00 0.01 0.01 33 1009.9
20260509184551 77 280 0.0 0.0 0.00 0.01 0.01 40 1010.0
20260509183036 77 302 0.0 3.0 0.00 0.01 0.01 39 1009.9
20260509181511 77 266 4.0 11.0 0.00 0.01 0.01 40 1010.1
20260509180052 77 300 6.0 12.0 0.00 0.01 0.01 37 1010.0
20260509174545 76 304 8.0 13.0 0.00 0.01 0.01 42 1010.1
20260509173018 76 286 3.0 8.0 0.00 0.01 0.01 41 1010.4
20260509171554 76 303 0.0 6.0 0.00 0.01 0.01 42 1010.4
20260509170032 75 252 3.0 10.0 0.00 0.01 0.01 41 1010.4
20260509164509 75 324 6.0 12.0 0.00 0.01 0.01 44 1010.5
20260509163049 74 264 4.0 6.0 0.00 0.01 0.01 48 1010.6
20260509161541 74 257 4.0 7.0 0.00 0.01 0.01 45 1010.6
20260509160007 73 307 0.0 0.0 0.00 0.01 0.01 53 1010.6
20260509154539 73 326 1.0 6.0 0.00 0.01 0.01 56 1010.5
20260509153029 72 238 0.0 4.0 0.00 0.01 0.01 54 1010.5
20260509151558 71 261 0.0 5.0 0.00 0.01 0.01 59 1010.6
20260509150039 69 244 0.0 3.0 0.00 0.01 0.01 63 1010.5
20260509144511 68 276 0.0 0.0 0.00 0.01 0.01 70 1010.5
20260509143055 67 256 0.0 4.0 0.00 0.01 0.01 73 1010.4
20260509141525 66 253 0.0 0.0 0.00 0.01 0.01 78 1010.3
20260509140006 64 190 1.0 4.0 0.00 0.01 0.01 79 1010.4
20260509134539 63 209 0.0 5.0 0.00 0.01 0.01 84 1010.4
20260509133023 62 207 2.0 5.0 0.00 0.01 0.01 85 1010.1
20260509131559 61 243 0.0 0.0 0.00 0.01 0.01 86 1010.1
20260509131501 61 243 0.0 0.0 0.00 0.01 0.01 87 1010.1
20260509130039 61 171 0.0 0.0 0.00 0.01 0.01 88 1010.1
20260509124516 59 225 0.0 0.0 0.00 0.01 0.01 90 1010.0
20260509123103 58 184 0.0 3.0 0.00 0.01 0.01 92 1010.0
20260509121529 57 252 0.0 4.0 0.01 0.01 0.01 92 1010.0
20260509120003 56 238 2.0 6.0 0.01 0.01 0.01 93 1009.8
20260509114543 55 235 0.0 6.0 0.01 0.01 0.01 94 1009.6
20260509113018 55 229 0.0 3.0 0.01 0.01 0.01 94 1009.5
20260509111555 54 205 0.0 0.0 0.00 0.00 0.00 94 1009.5
20260509110038 54 238 1.0 5.0 0.00 0.00 0.00 94 1009.4
20260509104521 54 213 0.0 0.0 0.00 0.00 0.00 94 1009.2
20260509103104 54 212 0.0 0.0 0.00 0.00 0.00 93 1009.2
20260509103007 54 212 0.0 0.0 0.00 0.00 0.00 93 1009.2
20260509101541 54 220 0.0 0.0 0.00 0.00 0.00 92 1009.2
20260509100023 54 220 0.0 0.0 0.00 0.00 0.00 92 1009.0
20260509094600 55 220 0.0 0.0 0.00 0.00 0.00 91 1009.2
20260509094500 55 220 0.0 0.0 0.00 0.00 0.00 91 1009.2
20260509093046 55 220 0.0 0.0 0.00 0.00 0.00 91 1009.4
20260509091525 56 220 0.0 0.0 0.00 0.00 0.00 90 1009.4
20260509090008 56 212 0.0 4.0 0.00 0.00 0.00 92 1009.3